Location: N�rnberg
(49.4471°N, 11.0632°E)
Time: 10:44:03
(UTC+01:00)

Tiangong - Pass Details

Date: 21 February 2026
Orbit: 381 x 391 km, 41.5° (Epoch: 7 March)

Event Time Altitude Azimuth Distance (km) Brightness Sun altitude
Rises 18:31:00 0° 256° (WSW) 2,260 4.0 -8.1°
Reaches altitude 10° 18:34:32 10° 214° (SW) 1,399 1.3 -8.7°
Maximum altitude 18:35:13 11° 202° (SSW) 1,367 1.0 -8.8°
Drops below altitude 10° 18:35:55 10° 189° (S) 1,397 0.9 -8.9°
Sets 18:39:26 0° 147° (SSE) 2,243 1.5 -9.5°
